Flag for Germany Weather past 2 weeks in Wesel, North Rhine-Westphalia, Germany

Now
41 °F

Clear.


Feels Like: 32 °F
Forecast: 38 / 48 °F
Wind: 20 mph from West

Location: Niederrhein

Current Time: Apr 1, 2015 at 6:13:06 AM

Latest Report: Apr 1, 2015 at 5:20 AM


Visibility: 10 mi

Pressure: 29.89 "Hg

Humidity: 66%

Dew point: 30 °F

Location of WeselLocation

Historic Weather in Wesel — Graph

°F

Wesel temperature yesterday

Maximum temperature yesterday: 54 °F (at 7:20 AM)
Minimum temperature yesterday: 39 °F (at 8:50 PM)
Average temperature yesterday: 49 °F

Past Weeks' High & Low Weather Summary

 TemperatureHumidityPressure
High63 °F (Mar 17, 2:20 PM)100% (Mar 18, 6:50 AM)30.39 "Hg (Mar 18, 6:50 AM)
Low30 °F (Mar 23, 5:50 AM)42% (Mar 17, 2:20 PM)29.21 "Hg (Mar 29, 7:20 PM)
Average45 °F78%29.97 "Hg
* Reported Mar 17 4:50 AM — Apr 1 4:50 AM, Wesel, Weather by CustomWeather, © 2015

Note: Actual official high and low records may vary slightly from our data, if they occured in-between our weather recording intervals... More about our weather records

Advertising

Wesel weather history for previous 24 hours

 ConditionsComfort  
Time TempWeatherWind HumidityBarometerVisibility
4:50 AM
Wed, Apr 1
43 °FClear.23 mph61%29.89 "Hg10 mi
11:50 PM
Tue, Mar 31
41 °FClear.13 mph76%29.80 "Hg10 mi
11:20 PM41 °FClear.18 mph70%29.80 "Hg10 mi
10:50 PM41 °FClear.17 mph70%29.80 "Hg10 mi
10:20 PM41 °FPassing clouds.22 mph70%29.80 "HgN/A
9:50 PM43 °FSunny.29 mph66%29.77 "Hg10 mi
8:50 PM39 °FPassing clouds.14 mph87%29.77 "HgN/A
7:50 PM46 °FThundershowers. Partly sunny.25 mph62%29.74 "Hg5 mi
7:20 PM50 °FThundershowers. Scattered clouds.17 mph54%29.71 "HgN/A
6:50 PM48 °FScattered showers. Clear.18 mph62%29.71 "Hg6 mi
6:20 PM48 °FThundershowers. Partly sunny.23 mph62%29.71 "HgN/A
5:50 PM50 °FSprinkles. Partly sunny.22 mph54%29.68 "HgN/A
5:20 PM50 °FSunny.26 mph50%29.68 "Hg10 mi
4:50 PM52 °FPassing clouds.21 mph44%29.68 "HgN/A
4:20 PM52 °FPassing clouds.29 mph44%29.65 "HgN/A
3:50 PM50 °FPassing clouds.28 mph47%29.65 "HgN/A
3:20 PM52 °FPassing clouds.28 mph47%29.62 "HgN/A
2:50 PM52 °FScattered clouds.26 mph50%29.59 "HgN/A
2:20 PM50 °FSunny.29 mph54%29.56 "Hg10 mi
1:50 PM52 °FScattered clouds.28 mph54%29.56 "HgN/A
1:20 PM52 °FSunny.28 mph54%29.53 "Hg10 mi
12:50 PM50 °FScattered showers. Scattered clouds.28 mph58%29.50 "HgN/A
11:50 AM50 °FPartly sunny.31 mph67%29.45 "HgN/A
11:20 AM50 °FPartly sunny.30 mph67%29.42 "HgN/A
10:50 AM52 °FPartly sunny.36 mph62%29.39 "HgN/A
10:20 AM52 °FPartly sunny.32 mph62%29.39 "HgN/A
9:50 AM52 °FPartly sunny.32 mph62%29.36 "HgN/A
9:20 AM52 °FPartly sunny.36 mph67%29.36 "HgN/A
8:50 AM50 °FPassing clouds.29 mph76%29.33 "HgN/A
8:20 AM52 °FHeavy rain. Partly cloudy.32 mph82%29.30 "Hg1 mi
7:50 AM54 °FPassing clouds.37 mph72%29.27 "Hg4 mi
7:20 AM54 °FSprinkles. Passing clouds.33 mph77%29.24 "Hg4 mi
6:50 AM52 °FRain. Partly cloudy.29 mph88%29.24 "Hg2 mi
6:20 AM52 °FRain. Partly cloudy.29 mph88%29.24 "Hg1 mi
Weather by CustomWeather, © 2015

See weather overviewHow to use our weather pages